,,Stat6,,Stat2,,Stat8,,Stat9,,Stat10,,Wind1,,Wind1,
time,status,PA1M_AVG,status,PR1M_SUM,status,RH1M_AVG,status,SR1M_AVG,status,TA1M_AVG,status,W1dAve1m,status,W1sAve1m,
2004-03-08, 00:00:01,VALID,919.757,VALID,0,VALID,81.6052,VALID,-0.0339617,VALID,21.1255,VALID,156,VALID,1.48129,
2004-03-08, 00:01:01,VALID,919.755,VALID,0,VALID,81.3293,VALID,-0.0339617,VALID,21.1543,VALID,161,VALID,1.74626,
2004-03-08, 00:02:01,VALID,919.756,VALID,0,VALID,80.8791,VALID,-0.0169808,VALID,21.203,VALID,168,VALID,1.89774,
2004-03-08, 00:03:01,VALID,919.76,VALID,0,VALID,81.2225,VALID,-0.0339617,VALID,21.2356,VALID,143,VALID,1.36204,
2004-03-08, 00:04:01,VALID,919.745,VALID,0,VALID,81.1805,VALID,-0.0509425,VALID,21.2458,VALID,107,VALID,1.19713,
2004-03-08, 00:05:00,VALID,919.742,VALID,0,VALID,81.2682,VALID,-0.0679233,VALID,21.2491,VALID,94,VALID,1.23165,
2004-03-08, 00:06:00,VALID,919.729,VALID,0,VALID,81.108,VALID,-0.0509425,VALID,21.2354,VALID,79,VALID,1.41499,
2004-03-08, 00:07:00,VALID,919.723,VALID,0,VALID,80.6248,VALID,-0.0339617,VALID,21.2515,VALID,78,VALID,1.6875,
2004-03-08, 00:08:00,VALID,919.712,VALID,0,VALID,80.8194,VALID,-0.0339617,VALID,21.2911,VALID,91,VALID,0.978795,
2004-03-08, 00:09:00,VALID,919.712,VALID,0,VALID,80.6998,VALID,-0.0169808,VALID,21.2873,VALID,95,VALID,1.06181,
2004-03-08, 00:10:00,VALID,919.714,VALID,0,VALID,80.4837,VALID,-0.0509425,VALID,21.2838,VALID,115,VALID,0.833394,
2004-03-08, 00:11:00,VALID,919.699,VALID,0,VALID,80.4811,VALID,-0.0339617,VALID,21.3,VALID,69,VALID,0.5625,
2004-03-08, 00:12:00,VALID,919.696,VALID,0,VALID,80.4341,VALID,-0.0339617,VALID,21.3363,VALID,96,VALID,1.04901,
2004-03-08, 00:13:00,VALID,919.695,VALID,0,VALID,80.5829,VALID,-0.0509425,VALID,21.3261,VALID,83,VALID,1.12198,
2004-03-08, 00:14:00,VALID,919.688,VALID,0,VALID,80.9694,VALID,-0.0169808,VALID,21.3164,VALID,122,VALID,0.785156,
2004-03-08, 00:15:00,VALID,919.692,VALID,0,VALID,81.4145,VALID,-0.0339617,VALID,21.3129,VALID,131,VALID,1.01817,
2004-03-08, 00:16:00,VALID,919.689,VALID,0,VALID,81.6955,VALID,-0.0339617,VALID,21.2545,VALID,100,VALID,0.85026,
2004-03-08, 00:17:00,VALID,919.672,VALID,0,VALID,81.2644,VALID,0,VALID,21.2095,VALID,84,VALID,1.14553,
2004-03-08, 00:18:00,VALID,919.681,VALID,0,VALID,81.3331,VALID,0,VALID,21.1995,VALID,79,VALID,1.05234,
2004-03-08, 00:19:00,VALID,919.668,VALID,0,VALID,81.2174,VALID,-0.0339617,VALID,21.1998,VALID,90,VALID,1.15116,
2004-03-08, 00:20:00,VALID,919.654,VALID,0,VALID,80.799,VALID,-0.0679233,VALID,21.1963,VALID,98,VALID,0.939174,
2004-03-08, 00:21:00,VALID,919.642,VALID,0,VALID,80.7189,VALID,-0.0509425,VALID,21.2332,VALID,121,VALID,0.602834,
2004-03-08, 00:22:00,VALID,919.633,VALID,0,VALID,80.9198,VALID,-0.0849042,VALID,21.2485,VALID,149,VALID,1.02344,
2004-03-08, 00:23:00,VALID,919.637,VALID,0,VALID,80.8257,VALID,-0.0849042,VALID,21.2779,VALID,148,VALID,1.00476,
2004-03-08, 00:24:00,VALID,919.639,VALID,0,VALID,81.1004,VALID,-0.0679233,VALID,21.2843,VALID,128,VALID,1.10392,
2004-03-08, 00:25:00,VALID,919.637,VALID,0,VALID,81.8227,VALID,-0.0509425,VALID,21.2744,VALID,126,VALID,1.09284,
2004-03-08, 00:26:00,VALID,919.611,VALID,0,VALID,80.6909,VALID,-0.0509425,VALID,21.2294,VALID,154,VALID,1.59316,
2004-03-08, 00:27:00,VALID,919.61,VALID,0,VALID,79.5274,VALID,-0.0849042,VALID,21.2682,VALID,140,VALID,1.52785,
2004-03-08, 00:28:00,VALID,919.6,VALID,0,VALID,80.0958,VALID,-0.0339617,VALID,21.3586,VALID,115,VALID,1.45,
2004-03-08, 00:29:00,VALID,919.57,VALID,0,VALID,80.4366,VALID,-0.0679233,VALID,21.385,VALID,112,VALID,1.50139,
2004-03-08, 00:30:00,VALID,919.563,VALID,0,VALID,79.7716,VALID,-0.0339617,VALID,21.3549,VALID,130,VALID,1.72483,
2004-03-08, 00:31:00,VALID,919.561,VALID,0,VALID,78.3016,VALID,-0.0509425,VALID,21.4365,VALID,110,VALID,1.93209,
2004-03-08, 00:32:00,VALID,919.537,VALID,0,VALID,77.9125,VALID,-0.0339617,VALID,21.5616,VALID,80,VALID,1.61328,
2004-03-08, 00:33:00,VALID,919.518,VALID,0,VALID,77.6022,VALID,-0.0339617,VALID,21.6694,VALID,103,VALID,1.15412,
2004-03-08, 00:34:00,VALID,919.503,VALID,0,VALID,77.2843,VALID,-0.0169808,VALID,21.7167,VALID,119,VALID,1.54566,
2004-03-08, 00:35:00,VALID,919.481,VALID,0,VALID,77.4178,VALID,-0.0339617,VALID,21.7528,VALID,129,VALID,1.13956,
2004-03-08, 00:36:00,VALID,919.455,VALID,0,VALID,77.8184,VALID,-0.0679233,VALID,21.762,VALID,112,VALID,1.27477,
2004-03-08, 00:37:00,VALID,919.449,VALID,0,VALID,78.4504,VALID,-0.0339617,VALID,21.7302,VALID,105,VALID,0.953658,
2004-03-08, 00:38:00,VALID,919.45,VALID,0,VALID,78.5902,VALID,-0.0509425,VALID,21.6623,VALID,80,VALID,1.00363,
2004-03-08, 00:39:00,VALID,919.436,VALID,0,VALID,78.4987,VALID,-0.0169808,VALID,21.6098,VALID,101,VALID,1.29204,
2004-03-08, 00:40:00,VALID,919.398,VALID,0,VALID,78.4122,VALID,-0.0509425,VALID,21.6139,VALID,138,VALID,1.11795,
2004-03-08, 00:41:00,VALID,919.408,VALID,0,VALID,78.7924,VALID,-0.0509425,VALID,21.6128,VALID,70,VALID,1.13221,
2004-03-08, 00:42:00,VALID,919.399,VALID,0,VALID,78.5203,VALID,-0.0509425,VALID,21.6042,VALID,81,VALID,1.18304,
2004-03-08, 00:43:00,VALID,919.39,VALID,0,VALID,78.0587,VALID,-0.0339617,VALID,21.6039,VALID,119,VALID,1.37016,
2004-03-08, 00:44:00,VALID,919.382,VALID,0,VALID,78.6259,VALID,-0.0339617,VALID,21.6166,VALID,128,VALID,1.54516,
2004-03-08, 00:45:00,VALID,919.386,VALID,0,VALID,78.7784,VALID,-0.0339617,VALID,21.5969,VALID,118,VALID,1.47466,
2004-03-08, 00:46:00,VALID,919.361,VALID,0,VALID,78.4949,VALID,0,VALID,21.5746,VALID,115,VALID,1.47173,
2004-03-08, 00:47:00,VALID,919.359,VALID,0,VALID,77.896,VALID,-0.0339617,VALID,21.6036,VALID,125,VALID,2.03507,
2004-03-08, 00:48:00,VALID,919.346,VALID,0,VALID,78.4364,VALID,-0.0339617,VALID,21.6489,VALID,129,VALID,1.83691,
2004-03-08, 00:49:00,VALID,919.334,VALID,0,VALID,78.608,VALID,0,VALID,21.6357,VALID,152,VALID,1.70406,
2004-03-08, 00:50:00,VALID,919.322,VALID,0,VALID,78.2342,VALID,0,VALID,21.594,VALID,151,VALID,2.34449,
2004-03-08, 00:51:00,VALID,919.301,VALID,0,VALID,78.4033,VALID,-0.0169808,VALID,21.5972,VALID,138,VALID,1.44786,
2004-03-08, 00:52:00,VALID,919.282,VALID,0,VALID,78.2978,VALID,0,VALID,21.5934,VALID,148,VALID,1.44371,
2004-03-08, 00:53:00,VALID,919.251,VALID,0,VALID,78.5992,VALID,-0.0339617,VALID,21.584,VALID,154,VALID,1.38783,
2004-03-08, 00:54:00,VALID,919.234,VALID,0,VALID,78.7772,VALID,-0.0509425,VALID,21.5748,VALID,149,VALID,1.70108,
2004-03-08, 00:55:00,VALID,919.216,VALID,0,VALID,78.1414,VALID,-0.0509425,VALID,21.5614,VALID,132,VALID,1.61083,
2004-03-08, 00:56:00,VALID,919.182,VALID,0,VALID,78.5229,VALID,-0.0339617,VALID,21.6069,VALID,130,VALID,1.15918,
2004-03-08, 00:57:00,VALID,919.171,VALID,0,VALID,78.6322,VALID,-0.0339617,VALID,21.6133,VALID,132,VALID,0.905859,
2004-03-08, 00:58:00,VALID,919.135,VALID,0,VALID,78.8891,VALID,-0.0339617,VALID,21.6104,VALID,135,VALID,0.744731,
2004-03-08, 00:59:00,VALID,919.102,VALID,0,VALID,78.2088,VALID,-0.0339617,VALID,21.5867,VALID,133,VALID,2.42063,
2004-03-08, 01:00:00,VALID,919.086,VALID,0,VALID,78.3003,VALID,0.0169808,VALID,21.6184,VALID,100,VALID,2.10105,
2004-03-08, 01:01:00,VALID,919.08,VALID,0,VALID,77.8095,VALID,0.0849042,VALID,21.6699,VALID,103,VALID,1.69624,
2004-03-08, 01:02:00,VALID,919.071,VALID,0,VALID,78.4109,VALID,0.0849042,VALID,21.6981,VALID,97,VALID,1.61756,
2004-03-08, 01:03:00,VALID,919.043,VALID,0,VALID,77.999,VALID,0.0849042,VALID,21.6919,VALID,121,VALID,1.96761,
2004-03-08, 01:04:00,VALID,919.028,VALID,0,VALID,78.3118,VALID,0.0849042,VALID,21.6989,VALID,108,VALID,1.46777,
2004-03-08, 01:05:00,VALID,919.015,VALID,0,VALID,78.823,VALID,0.0509425,VALID,21.6628,VALID,122,VALID,1.1471,
2004-03-08, 01:06:00,VALID,918.99,VALID,0,VALID,78.5902,VALID,0.0679233,VALID,21.6114,VALID,130,VALID,1.25921,
2004-03-08, 01:07:00,VALID,918.974,VALID,0,VALID,78.8547,VALID,0.0849042,VALID,21.5953,VALID,108,VALID,1.49922,
2004-03-08, 01:08:00,VALID,918.982,VALID,0,VALID,79.7118,VALID,0.0509425,VALID,21.5662,VALID,77,VALID,1.39099,
2004-03-08, 01:09:00,VALID,918.977,VALID,0,VALID,79.5592,VALID,0.0849042,VALID,21.4887,VALID,107,VALID,1.74219,
2004-03-08, 01:10:00,VALID,918.957,VALID,0,VALID,79.8542,VALID,0.0509425,VALID,21.4496,VALID,106,VALID,0.900436,
2004-03-08, 01:11:00,VALID,918.952,VALID,0,VALID,79.7271,VALID,0.0849042,VALID,21.4499,VALID,128,VALID,1.40854,
2004-03-08, 01:12:00,VALID,918.93,VALID,0,VALID,79.3583,VALID,0.0849042,VALID,21.4529,VALID,116,VALID,1.31321,
2004-03-08, 01:13:00,VALID,918.92,VALID,0,VALID,78.8369,VALID,0.101885,VALID,21.4854,VALID,104,VALID,1.18217,
2004-03-08, 01:14:00,VALID,918.904,VALID,0,VALID,79.371,VALID,0.0679233,VALID,21.5307,VALID,128,VALID,1.33721,
2004-03-08, 01:15:00,VALID,918.879,VALID,0,VALID,79.8275,VALID,0.0509425,VALID,21.5086,VALID,92,VALID,1.16033,
2004-03-08, 01:16:00,VALID,918.872,VALID,0,VALID,79.975,VALID,-0.0339617,VALID,21.4873,VALID,92,VALID,1.22017,
2004-03-08, 01:17:00,VALID,918.846,VALID,0,VALID,80.064,VALID,-0.0169808,VALID,21.4319,VALID,71,VALID,1.15712,
2004-03-08, 01:18:00,VALID,918.845,VALID,0,VALID,80.6477,VALID,-0.0169808,VALID,21.4163,VALID,117,VALID,1.20422,
2004-03-08, 01:19:00,VALID,918.845,VALID,0,VALID,80.8575,VALID,0,VALID,21.3708,VALID,108,VALID,1.59583,
2004-03-08, 01:20:00,VALID,918.871,VALID,0,VALID,81.6243,VALID,0,VALID,21.3191,VALID,70,VALID,1.56934,
2004-03-08, 01:21:00,VALID,918.866,VALID,0,VALID,81.9524,VALID,-0.0509425,VALID,21.2316,VALID,74,VALID,1.40903,
2004-03-08, 01:22:00,VALID,918.847,VALID,0,VALID,81.4475,VALID,-0.0169808,VALID,21.1769,VALID,102,VALID,1.51491,
2004-03-08, 01:23:00,VALID,918.856,VALID,0,VALID,81.1602,VALID,-0.0169808,VALID,21.1829,VALID,104,VALID,1.65458,
2004-03-08, 01:24:00,VALID,918.848,VALID,0,VALID,81.2428,VALID,0,VALID,21.2025,VALID,102,VALID,1.25534,
2004-03-08, 01:25:00,VALID,918.838,VALID,0,VALID,81.9041,VALID,0,VALID,21.2022,VALID,122,VALID,0.918064,
2004-03-08, 01:26:00,VALID,918.832,VALID,0,VALID,81.6904,VALID,0,VALID,21.1931,VALID,122,VALID,1.22786,
2004-03-08, 01:27:00,VALID,918.835,VALID,0,VALID,82.2906,VALID,0,VALID,21.1796,VALID,118,VALID,1.21973,
2004-03-08, 01:28:00,VALID,918.835,VALID,0,VALID,82.503,VALID,-0.0169808,VALID,21.1382,VALID,95,VALID,0.932664,
2004-03-08, 01:29:00,VALID,918.851,VALID,0,VALID,83.0294,VALID,-0.0169808,VALID,21.0929,VALID,85,VALID,0.847396,
2004-03-08, 01:30:00,VALID,918.84,VALID,0,VALID,82.962,VALID,-0.0509425,VALID,21.0445,VALID,109,VALID,0.920573,
2004-03-08, 01:31:00,VALID,918.859,VALID,0,VALID,82.4356,VALID,-0.0509425,VALID,21.0125,VALID,127,VALID,1.64565,
2004-03-08, 01:32:00,VALID,918.848,VALID,0,VALID,82.8743,VALID,-0.0679233,VALID,21.0361,VALID,119,VALID,1.75139,
2004-03-08, 01:33:00,VALID,918.855,VALID,0,VALID,83.491,VALID,-0.0849042,VALID,21.0065,VALID,115,VALID,1.34448,
2004-03-08, 01:34:00,VALID,918.832,VALID,0,VALID,83.0205,VALID,-0.0849042,VALID,20.9678,VALID,123,VALID,1.56959,
2004-03-08, 01:35:00,VALID,918.836,VALID,0,VALID,82.9023,VALID,-0.101885,VALID,20.9648,VALID,137,VALID,1.4819,
2004-03-08, 01:36:00,VALID,918.8,VALID,0,VALID,83.0485,VALID,-0.0679233,VALID,20.957,VALID,136,VALID,1.39137,
2004-03-08, 01:37:00,VALID,918.788,VALID,0,VALID,83.1083,VALID,-0.101885,VALID,20.9645,VALID,137,VALID,1.31177,
2004-03-08, 01:38:00,VALID,918.784,VALID,0,VALID,83.224,VALID,-0.0679233,VALID,20.9578,VALID,112,VALID,1.23038,
2004-03-08, 01:39:00,VALID,918.783,VALID,0,VALID,83.0205,VALID,-0.101885,VALID,20.9546,VALID,121,VALID,1.63844,
2004-03-08, 01:40:00,VALID,918.782,VALID,0,VALID,83.3104,VALID,-0.0849042,VALID,20.9745,VALID,120,VALID,0.908398,
2004-03-08, 01:41:00,VALID,918.785,VALID,0,VALID,83.8254,VALID,-0.101885,VALID,20.9551,VALID,74,VALID,1.23601,
2004-03-08, 01:42:00,VALID,918.78,VALID,0,VALID,83.3778,VALID,-0.0679233,VALID,20.9258,VALID,100,VALID,0.950462,
2004-03-08, 01:43:00,VALID,918.766,VALID,0,VALID,83.2443,VALID,-0.0339617,VALID,20.9193,VALID,120,VALID,1.05723,
2004-03-08, 01:44:00,VALID,918.758,VALID,0,VALID,83.3168,VALID,-0.0849042,VALID,20.9285,VALID,106,VALID,1.32203,
2004-03-08, 01:45:00,VALID,918.749,VALID,0,VALID,83.3422,VALID,-4.62593e-018,VALID,20.9384,VALID,117,VALID,1.41832,
2004-03-08, 01:46:00,VALID,918.743,VALID,0,VALID,83.1731,VALID,0.0509425,VALID,20.9368,VALID,115,VALID,1.80523,
2004-03-08, 01:47:00,VALID,918.726,VALID,0,VALID,82.2067,VALID,0.0339617,VALID,20.9853,VALID,100,VALID,1.56668,
2004-03-08, 01:48:00,VALID,918.716,VALID,0,VALID,82.4343,VALID,0.0169808,VALID,21.0529,VALID,116,VALID,1.36211,
2004-03-08, 01:49:00,VALID,918.718,VALID,0,VALID,82.5589,VALID,0.0509425,VALID,21.0825,VALID,85,VALID,0.964753,
2004-03-08, 01:50:00,VALID,918.703,VALID,0,VALID,81.946,VALID,0.0169808,VALID,21.0755,VALID,88,VALID,1.08841,
2004-03-08, 01:51:00,VALID,918.699,VALID,0,VALID,81.9155,VALID,0,VALID,21.1083,VALID,98,VALID,1.1855,
2004-03-08, 01:52:00,VALID,918.695,VALID,0,VALID,81.6981,VALID,0.0169808,VALID,21.1379,VALID,73,VALID,1.18679,
2004-03-08, 01:53:00,VALID,918.693,VALID,0,VALID,81.595,VALID,0.0169808,VALID,21.1635,VALID,67,VALID,1.65816,
2004-03-08, 01:54:00,VALID,918.704,VALID,0,VALID,81.2466,VALID,0.0509425,VALID,21.1729,VALID,83,VALID,1.35614,
2004-03-08, 01:55:00,VALID,918.705,VALID,0,VALID,81.2682,VALID,0.0339617,VALID,21.1995,VALID,84,VALID,1.36795,
2004-03-08, 01:56:00,VALID,918.685,VALID,0,VALID,81.4323,VALID,0,VALID,21.1955,VALID,88,VALID,0.961111,
2004-03-08, 01:57:00,VALID,918.678,VALID,0,VALID,81.4463,VALID,0,VALID,21.1864,VALID,97,VALID,1.14416,
2004-03-08, 01:58:00,VALID,918.688,VALID,0,VALID,81.6217,VALID,0.0169808,VALID,21.1702,VALID,74,VALID,1.35265,
2004-03-08, 01:59:00,VALID,918.669,VALID,0,VALID,81.3,VALID,0.0509425,VALID,21.1608,VALID,84,VALID,1.56691,
2004-03-08, 02:00:00,VALID,918.665,VALID,0,VALID,81.3649,VALID,-0.0339617,VALID,21.1769,VALID,105,VALID,1.21671,
2004-03-08, 02:01:00,VALID,918.655,VALID,0,VALID,81.857,VALID,-0.0339617,VALID,21.1777,VALID,132,VALID,1.19893,
2004-03-08, 02:02:00,VALID,918.663,VALID,0,VALID,82.208,VALID,-0.0339617,VALID,21.1616,VALID,112,VALID,1.36458,
2004-03-08, 02:03:00,VALID,918.662,VALID,0,VALID,82.1825,VALID,-0.0509425,VALID,21.1258,VALID,68,VALID,1.07626,
2004-03-08, 02:04:00,VALID,918.667,VALID,0,VALID,82.3033,VALID,-0.0849042,VALID,21.1037,VALID,65,VALID,1.06977,
2004-03-08, 02:05:00,VALID,918.669,VALID,0,VALID,82.208,VALID,-0.0679233,VALID,21.0875,VALID,82,VALID,1.28027,
2004-03-08, 02:06:00,VALID,918.677,VALID,0,VALID,81.9905,VALID,-0.0509425,VALID,21.0846,VALID,85,VALID,1.24392,
2004-03-08, 02:07:00,VALID,918.675,VALID,0,VALID,81.6853,VALID,-0.0849042,VALID,21.0972,VALID,106,VALID,1.34055,
2004-03-08, 02:08:00,VALID,918.677,VALID,0,VALID,81.9435,VALID,-0.0849042,VALID,21.1166,VALID,94,VALID,0.990785,
2004-03-08, 02:09:00,VALID,918.672,VALID,0,VALID,82.2728,VALID,-0.101885,VALID,21.1037,VALID,86,VALID,0.964583,
2004-03-08, 02:10:00,VALID,918.662,VALID,0,VALID,82.7064,VALID,-0.101885,VALID,21.0808,VALID,100,VALID,0.529916,
2004-03-08, 02:11:00,VALID,918.65,VALID,0,VALID,83.1973,VALID,-0.101885,VALID,21.0523,VALID,104,VALID,0.616235,
2004-03-08, 02:12:00,VALID,918.642,VALID,0,VALID,83.566,VALID,-0.101885,VALID,21.01,VALID,112,VALID,1.22622,
2004-03-08, 02:13:00,VALID,918.626,VALID,0,VALID,83.8916,VALID,-0.101885,VALID,20.9653,VALID,109,VALID,0.924237,
2004-03-08, 02:14:00,VALID,918.593,VALID,0,VALID,83.6436,VALID,-0.101885,VALID,20.9169,VALID,116,VALID,1.48549,
2004-03-08, 02:15:00,VALID,918.57,VALID,0,VALID,83.4859,VALID,-0.0509425,VALID,20.8865,VALID,105,VALID,1.7104,
2004-03-08, 02:16:00,VALID,918.57,VALID,0,VALID,83.856,VALID,0,VALID,20.8986,VALID,93,VALID,1.48214,
2004-03-08, 02:17:00,VALID,918.556,VALID,0,VALID,84.2591,VALID,0.0169808,VALID,20.8862,VALID,122,VALID,1.22117,
2004-03-08, 02:18:00,VALID,918.535,VALID,0,VALID,84.2413,VALID,0.0169808,VALID,20.8504,VALID,116,VALID,1.7221,
2004-03-08, 02:19:00,VALID,918.527,VALID,0,VALID,84.5515,VALID,0,VALID,20.8216,VALID,118,VALID,1.48118,
2004-03-08, 02:20:00,VALID,918.537,VALID,0,VALID,84.7715,VALID,0,VALID,20.7861,VALID,112,VALID,2.00577,
2004-03-08, 02:21:00,VALID,918.549,VALID,0,VALID,85.2318,VALID,-0.0169808,VALID,20.754,VALID,112,VALID,1.99255,
2004-03-08, 02:22:00,VALID,918.545,VALID,0,VALID,85.6464,VALID,0,VALID,20.7021,VALID,86,VALID,1.27362,
2004-03-08, 02:23:00,VALID,918.542,VALID,0,VALID,86.0304,VALID,0,VALID,20.6542,VALID,74,VALID,1.23549,
2004-03-08, 02:24:00,VALID,918.552,VALID,0,VALID,86.1538,VALID,0.0169808,VALID,20.6084,VALID,95,VALID,1.69531,
2004-03-08, 02:25:00,VALID,918.562,VALID,0,VALID,86.3648,VALID,-0.0169808,VALID,20.5665,VALID,108,VALID,1.63681,
2004-03-08, 02:26:00,VALID,918.563,VALID,0,VALID,86.4093,VALID,0,VALID,20.5374,VALID,99,VALID,1.79154,
2004-03-08, 02:27:00,VALID,918.547,VALID,0,VALID,86.8264,VALID,0,VALID,20.5312,VALID,100,VALID,1.5651,
2004-03-08, 02:28:00,VALID,918.541,VALID,0,VALID,86.8646,VALID,0.0169808,VALID,20.4825,VALID,105,VALID,1.50491,
2004-03-08, 02:29:00,VALID,918.54,VALID,0,VALID,87.0947,VALID,-0.0169808,VALID,20.4569,VALID,110,VALID,1.47039,
2004-03-08, 02:30:00,VALID,918.524,VALID,0,VALID,87.405,VALID,0.0169808,VALID,20.4437,VALID,114,VALID,1.36974,
2004-03-08, 02:31:00,VALID,918.541,VALID,0,VALID,86.9943,VALID,0,VALID,20.4114,VALID,91,VALID,1.31138,
2004-03-08, 02:32:00,VALID,918.532,VALID,0,VALID,87.035,VALID,0.0169808,VALID,20.4214,VALID,89,VALID,1.38746,
2004-03-08, 02:33:00,VALID,918.524,VALID,0,VALID,87.7496,VALID,0.0169808,VALID,20.4211,VALID,70,VALID,1.30259,
2004-03-08, 02:34:00,VALID,918.512,VALID,0,VALID,86.8646,VALID,0.0169808,VALID,20.405,VALID,99,VALID,2.05915,
2004-03-08, 02:35:00,VALID,918.508,VALID,0,VALID,87.138,VALID,0,VALID,20.4308,VALID,99,VALID,1.58921,
2004-03-08, 02:36:00,VALID,918.495,VALID,0,VALID,86.9765,VALID,0,VALID,20.4378,VALID,118,VALID,1.80327,
2004-03-08, 02:37:00,VALID,918.486,VALID,0,VALID,87.9785,VALID,0.0339617,VALID,20.444,VALID,132,VALID,1.1685,
2004-03-08, 02:38:00,VALID,918.497,VALID,0,VALID,88.2405,VALID,0,VALID,20.4025,VALID,131,VALID,1.58736,
2004-03-08, 02:39:00,VALID,918.509,VALID,0,VALID,88.9119,VALID,0.0169808,VALID,20.3245,VALID,90,VALID,1.18636,
2004-03-08, 02:40:00,VALID,918.506,VALID,0,VALID,89.4841,VALID,0.0339617,VALID,20.2765,VALID,81,VALID,0.987645,
2004-03-08, 02:41:00,VALID,918.491,VALID,0,VALID,89.9698,VALID,0.0509425,VALID,20.205,VALID,103,VALID,1.02852,
2004-03-08, 02:42:00,VALID,918.504,VALID,0,VALID,90.3297,VALID,0,VALID,20.1441,VALID,124,VALID,1.12147,
2004-03-08, 02:43:00,VALID,918.489,VALID,0,VALID,90.3704,VALID,0,VALID,20.1024,VALID,117,VALID,1.43066,
2004-03-08, 02:44:00,VALID,918.482,VALID,0,VALID,90.2191,VALID,0,VALID,20.0631,VALID,112,VALID,1.29288,
2004-03-08, 02:45:00,VALID,918.481,VALID,0,VALID,90.5217,VALID,0,VALID,20.0572,VALID,88,VALID,1.09412,
2004-03-08, 02:46:00,VALID,918.473,VALID,0,VALID,90.3882,VALID,0,VALID,20.0286,VALID,102,VALID,1.0984,
2004-03-08, 02:47:00,VALID,918.469,VALID,0,VALID,90.3195,VALID,-0.0169808,VALID,20.0048,VALID,87,VALID,1.06808,
2004-03-08, 02:48:00,VALID,918.465,VALID,0,VALID,89.9139,VALID,0.0169808,VALID,20.0184,VALID,84,VALID,1.19327,
2004-03-08, 02:49:00,VALID,918.463,VALID,0,VALID,90.1466,VALID,0,VALID,20.048,VALID,80,VALID,1.13001,
2004-03-08, 02:50:00,VALID,918.45,VALID,0,VALID,90.008,VALID,0,VALID,20.0475,VALID,101,VALID,1.58666,
2004-03-08, 02:51:00,VALID,918.441,VALID,0,VALID,90.3895,VALID,0,VALID,20.0704,VALID,131,VALID,1.09877,
2004-03-08, 02:52:00,VALID,918.428,VALID,0,VALID,90.2025,VALID,0,VALID,20.0639,VALID,139,VALID,1.29948,
2004-03-08, 02:53:00,VALID,918.413,VALID,0,VALID,89.8389,VALID,0,VALID,20.0699,VALID,129,VALID,1.36685,
2004-03-08, 02:54:00,VALID,918.422,VALID,0,VALID,90.0245,VALID,0,VALID,20.1061,VALID,110,VALID,0.696615,
2004-03-08, 02:55:00,VALID,918.406,VALID,0,VALID,90.0271,VALID,0.0169808,VALID,20.0994,VALID,120,VALID,1.31113,
2004-03-08, 02:56:00,VALID,918.416,VALID,0,VALID,90.3615,VALID,0.0169808,VALID,20.0957,VALID,78,VALID,1.07772,
2004-03-08, 02:57:00,VALID,918.408,VALID,0,VALID,89.9088,VALID,0,VALID,20.0865,VALID,103,VALID,1.4972,
2004-03-08, 02:58:00,VALID,918.39,VALID,0,VALID,89.7295,VALID,0.0339617,VALID,20.083,VALID,105,VALID,1.80174,
2004-03-08, 02:59:00,VALID,918.374,VALID,0,VALID,89.4281,VALID,0.0169808,VALID,20.0962,VALID,117,VALID,2.00566,
2004-03-08, 03:00:00,VALID,918.36,VALID,0,VALID,89.4243,VALID,0,VALID,20.1417,VALID,132,VALID,1.52464,
2004-03-08, 03:01:00,VALID,918.35,VALID,0,VALID,89.9063,VALID,0.0169808,VALID,20.1479,VALID,73,VALID,1.24349,
2004-03-08, 03:02:00,VALID,918.344,VALID,0,VALID,90.0995,VALID,0,VALID,20.1158,VALID,95,VALID,1.0158,
2004-03-08, 03:03:00,VALID,918.325,VALID,0,VALID,90.0258,VALID,0.0169808,VALID,20.0838,VALID,109,VALID,1.80017,
2004-03-08, 03:04:00,VALID,918.337,VALID,0,VALID,90.5484,VALID,0.0169808,VALID,20.0542,VALID,86,VALID,1.32613,
2004-03-08, 03:05:00,VALID,918.34,VALID,0,VALID,90.5446,VALID,0.0169808,VALID,20.005,VALID,75,VALID,1.53143,
2004-03-08, 03:06:00,VALID,918.34,VALID,0,VALID,90.4085,VALID,0,VALID,19.9998,VALID,81,VALID,1.27089,
2004-03-08, 03:07:00,VALID,918.326,VALID,0,VALID,89.9558,VALID,0,VALID,19.9934,VALID,93,VALID,1.46596,
2004-03-08, 03:08:00,VALID,918.32,VALID,0,VALID,89.6621,VALID,0.0339617,VALID,20.009,VALID,110,VALID,1.61589,
2004-03-08, 03:09:00,VALID,918.314,VALID,0,VALID,89.7511,VALID,0.0169808,VALID,20.0416,VALID,119,VALID,1.33441,
2004-03-08, 03:10:00,VALID,918.317,VALID,0,VALID,89.8529,VALID,0,VALID,20.0507,VALID,114,VALID,1.61119,
2004-03-08, 03:11:00,VALID,918.302,VALID,0,VALID,90.2191,VALID,0,VALID,20.051,VALID,86,VALID,1.08239,
2004-03-08, 03:12:00,VALID,918.303,VALID,0,VALID,90.2153,VALID,0,VALID,20.0192,VALID,87,VALID,1.04887,
2004-03-08, 03:13:00,VALID,918.296,VALID,0,VALID,88.4223,VALID,0.0339617,VALID,20.0127,VALID,91,VALID,1.98342,
2004-03-08, 03:14:00,VALID,918.285,VALID,0,VALID,89.0543,VALID,0,VALID,20.1096,VALID,99,VALID,0.946733,
2004-03-08, 03:15:00,VALID,918.272,VALID,0,VALID,88.9843,VALID,-0.0509425,VALID,20.1004,VALID,97,VALID,1.48037,
2004-03-08, 03:16:00,VALID,918.281,VALID,0,VALID,89.5184,VALID,-0.0849042,VALID,20.1009,VALID,87,VALID,1.26133,
2004-03-08, 03:17:00,VALID,918.283,VALID,0,VALID,89.4701,VALID,-0.0849042,VALID,20.0657,VALID,115,VALID,1.63015,
2004-03-08, 03:18:00,VALID,918.268,VALID,0,VALID,90.1415,VALID,-0.0679233,VALID,20.0463,VALID,89,VALID,1.05583,
2004-03-08, 03:19:00,VALID,918.268,VALID,0,VALID,90.0894,VALID,-0.101885,VALID,20.017,VALID,106,VALID,1.78997,
2004-03-08, 03:20:00,VALID,918.27,VALID,0,VALID,90.4047,VALID,-0.0509425,VALID,19.9849,VALID,92,VALID,1.49349,
2004-03-08, 03:21:00,VALID,918.259,VALID,0,VALID,90.2547,VALID,-0.101885,VALID,19.9526,VALID,100,VALID,1.32622,
2004-03-08, 03:22:00,VALID,918.239,VALID,0,VALID,90.626,VALID,-0.0679233,VALID,19.9559,VALID,123,VALID,1.13524,
2004-03-08, 03:23:00,VALID,918.224,VALID,0,VALID,91.1028,VALID,-0.0679233,VALID,19.933,VALID,115,VALID,1.52089,
2004-03-08, 03:24:00,VALID,918.231,VALID,0,VALID,91.4551,VALID,-0.0679233,VALID,19.8749,VALID,100,VALID,1.24733,
2004-03-08, 03:25:00,VALID,918.216,VALID,0,VALID,91.6496,VALID,-0.0679233,VALID,19.8396,VALID,90,VALID,1.13926,
2004-03-08, 03:26:00,VALID,918.209,VALID,0,VALID,91.6522,VALID,-0.0509425,VALID,19.814,VALID,89,VALID,1.19211,
2004-03-08, 03:27:00,VALID,918.202,VALID,0,VALID,91.2605,VALID,-0.0339617,VALID,19.7979,VALID,124,VALID,1.55291,
2004-03-08, 03:28:00,VALID,918.193,VALID,0,VALID,91.3228,VALID,-0.0679233,VALID,19.8041,VALID,116,VALID,1.39658,
2004-03-08, 03:29:00,VALID,918.202,VALID,0,VALID,90.8803,VALID,-0.0849042,VALID,19.8011,VALID,119,VALID,1.42615,
2004-03-08, 03:30:00,VALID,918.222,VALID,0,VALID,90.8078,VALID,0,VALID,19.81,VALID,113,VALID,1.65589,
2004-03-08, 03:31:00,VALID,918.224,VALID,0,VALID,90.9502,VALID,0.0169808,VALID,19.8123,VALID,98,VALID,0.92294,
2004-03-08, 03:32:00,VALID,918.24,VALID,0,VALID,90.743,VALID,0.0339617,VALID,19.8155,VALID,121,VALID,1.57431,
2004-03-08, 03:33:00,VALID,918.228,VALID,0,VALID,90.4365,VALID,0.0339617,VALID,19.809,VALID,126,VALID,1.66079,
2004-03-08, 03:34:00,VALID,918.244,VALID,0,VALID,90.392,VALID,0.0339617,VALID,19.812,VALID,128,VALID,1.63463,
2004-03-08, 03:35:00,VALID,918.249,VALID,0,VALID,90.4124,VALID,0.0169808,VALID,19.8155,VALID,121,VALID,2.00672,